CINOVEC Weather Reports


Display with metric or nautical units.
time (UTC)temp
F
wind
direction
speed
MPH
gust
MPH
rain 1hr
in
rain 24hr
in
rain mn
in
humidity
%
barometer
mb
20260906012032 48 290 9.0 16.0 0.00 0.00 0.00 93
20260906001728 48 290 10.0 18.0 0.00 0.00 0.00 87
20260905231728 50 290 12.0 21.0 0.00 0.00 0.00 87
20260905222130 50 290 10.0 23.0 0.00 0.00 0.00 87
20260905211727 52 290 10.0 22.0 0.00 0.00 0.00 81
20260905201729 54 290 10.0 21.0 0.00 0.00 0.00 71
20260905192031 54 280 14.0 29.0 0.00 0.00 0.00 71
20260905181728 55 270 12.0 23.0 0.00 0.00 0.00 66
20260905171729 57 250 14.0 26.0 0.00 0.00 0.00 62
20260905162133 59 250 12.0 21.0 0.00 0.00 0.00 58
20260905152138 59 260 16.0 31.0 0.00 0.00 0.00 54
20260905142238 61 250 16.0 28.0 0.00 0.00 0.00 51
20260905131928 59 250 16.0 28.0 0.00 0.00 0.00 58
20260905121641 59 260 14.0 25.0 0.00 0.00 0.00 58
20260905111730 57 250 14.0 28.0 0.00 0.00 0.00 67
20260905102147 57 230 13.0 22.0 0.00 0.00 0.00 71
20260905091642 55 230 14.0 23.0 0.00 0.00 0.00 76
20260905081730 52 240 15.0 24.0 0.00 0.00 0.00 87
20260905072032 52 250 12.0 21.0 0.00 0.00 0.00 87
20260905061731 50 270 8.0 21.0 0.00 0.00 0.00 93
20260905051730 50 260 9.0 18.0 0.00 0.00 0.00 99
20260905042131 52 280 10.0 23.0 0.00 0.00 0.00 99
20260905031730 52 250 13.0 23.0 0.00 0.00 0.00 99
20260905021730 52 270 9.0 21.0 0.00 0.00 0.00 99